COSMOS 2091

导读

COSMOS 2091是独联体(CIS)于1990年8月8日发射的卫星,隶属于苏联/俄罗斯“宇宙”(COSMOS)卫星系列。“宇宙”系列多包含军事侦察与空间科学试验任务,该卫星秉承这一传统,承载空间观测与技术验证使命,冷战末期入轨运行,是独联体航天发展早期阶段的代表性航天器,延续了苏联航天探索的技术脉络。

Basic Information
目录编号:
20736
目录名称:
COSMOS 2091
国际标识:
1990-070B
轨道中心:
EARTH
卫星名称:
COSMOS 2091
卫星全名:
--
卫星状态:
在轨 (已飞行13097 天)
发射日期:
1990-08-08 UTC
国别 :
俄罗斯(独联体) (CIS)
星等 :
--
Orbit Information
数据来源 国际轨道数据 AOE轨道数据
星历时间 2026-06-17T13:14:02+0800
3小时前
查看轨道信息
2026-06-14T16:00:00+0800
3天前
查看轨道信息
半长轴 7790.531km 7790.522km
偏心率 0.000455 0.0004616
轨道倾角 82.579° 82.580°
近地点辐角 108.329° 113.825°
升交点赤经 328.148° 329.990°
平近点角 65.114° 274.368°
近地点 1408.849km 1408.788km
远地点 1415.939km 1415.982km
周期 114.054分钟 114.054分钟
每日圈数 12.625605 12.625628
Detailed Information
使用方式:
暂无
2D Orbit Map
3D Orbit Map
Orbit Altitude Analysis Chart
Orbit Inclination Analysis Chart
Orbit Comprehensive Analysis Chart
View Comprehensive Chart